NOAA 16

Satellite information

Favourite Embed

Satellite Type and Status

PAYLOADIN ORBIT

Key statistics

Satellite NOAA 16 at a glance.

Uptime

9214

Days in orbit

Revolutions

≈ 14.1

Per day

Orbit

SSO

Sun Synchronous Orbit

Inclination

98.5

Latest

Satellite identification and parameters

Extended collection of information and parameters for NOAA 16.

Object identification

Identified? True

Debris? False

Object name: NOAA 16

International designator: 2000-055A

Object number (NORAD): 26536

Object ID (CCSDS): 26536

Country: UNITED STATES OF AMERICA (US)

Current information (Y/N): Y

RCS size: LARGE

Orbital parameters

Period: 101.848 minutes

Inclination: 98.4749 deg

SMA: 7224.301 km

Apoapsis: 854.427 km

Periapsis: 837.906 km

RAAN: 5.3229 deg

Eccentricy: 0.00114344

Argument of periapsis: 115.8262 deg

Mean anomaly: 244.4093 deg

Mean motion: 14.13868399 rev/day

Mean motion (dot): 0.00000164 rev/day2

B* drag term: 0.00010806039 1/REarth

Two-line elements (TLE)

Creation date: Dec. 12, 2025, 10:14 a.m.

Reference frame: TEME

Reference center: EARTH

Epoch: Dec. 12, 2025, 6:30 a.m. UTC

TLE line 0: 0 NOAA 16

TLE line 1: 1 26536U 00055A 25346.27151171 .00000164 00000-0 10806-3 0 9996

TLE line 2: 2 26536 98.4749 5.3229 0011434 115.8262 244.4093 14.13868399597317

Live tracking on map

Real-time ground track for satellite NOAA 16.

In-orbit conjunctions

A list of the most updated potential collisions computed for object NOAA 16.

Target Orbit TCA Probability of collision Miss distance Type
DELTA 1 DEB SSO 2025-12-15 23:25:59 0.0001689768 201.0 (m) DEBRIS
FENGYUN 1C DEB SSO 2025-12-01 11:58:36 0.0008486772 329.0 (m) DEBRIS
FENGYUN 1C DEB SSO 2025-10-13 04:05:41 0.0001020064 212.0 (m) DEBRIS
COSMOS 1275 DEB LEO 2025-09-27 18:58:15 0.0001003851 490.0 (m) DEBRIS
CZ-6A DEB SSO 2024-10-14 09:37:31 0.0006208965 350.0 (m) DEBRIS

Associated space launch

The NOAA K, L and M POES satellites begin the fifth generation of improved environmental monitoring in support of NOAA missions. The instrument payload has significant improvements and additions/deletions. The instrument changes have effected the spacecraft subsystems and data formats.

NOAA 16 was lifted into orbit during the mission ‘Titan II SLV | NOAA 16’, on board a Titan II SLV space rocket.

The launch took place on Sept. 21, 2000, 10:22 a.m. from Space Launch Complex 4W.

For more information about the launch, click the button.

Launch to space Titan II SLV | NOAA 16
Titan II SLV | NOAA 16

Agency: N/A

Status: Launch Successful

Launch date: Sept. 21, 2000, 10:22 a.m. UTC

Rocket: Titan II SLV

Launch pad: Space Launch Complex 4W

Location: Vandenberg SFB, CA, USA

...

Latest news about this satellite

There are no fresh news available about this satellite. Check back as we update our databases every day.


Newsletter sign-up

Weekly statistics, charts and insights to help you stay on top of the space industry.